Weather History for Shirley, NY

Change the Weather History Date:

Saturday, March 29, 2014

  Actual Average (KISP) Record (KISP)
Temperature  
Mean Temperature 42 °F 43 °F  
Max Temperature 53 °F 51 °F 81 °F (1998)
Min Temperature 35 °F 35 °F 29 °F (2006)
Degree Days  
Heating Degree Days 24 22  
Month to date heating degree days 754  
Since 1 July heating degree days 4649  
Cooling Degree Days 0 0  
Month to date cooling degree days 0  
Year to date cooling degree days 0  
Moisture  
Dew Point 43 °F    
Average Humidity 92    
Maximum Humidity 97    
Minimum Humidity 74    
Precipitation  
Precipitation 2.38 in 0.14 in 2.68 in (2014)
Month to date precipitation 4.16  
Year to date precipitation 11.06  
Snow  
Snow 0.00 in 0.10 in 3.00 in (1996)
Month to date snowfall 4.4  
Since 1 July snowfall 24.1  
Snow Depth -    
Sea Level Pressure  
Sea Level Pressure 30.04 in    
Wind  
Wind Speed 5 mph (East)    
Max Wind Speed 13 mph    
Max Gust Speed 21 mph    
Visibility 4 miles    
Events Rain    
T = Trace of Precipitation, MM = Missing Value Source: NWS Daily Summary

Daily Weather History Graph

Daily Weather History Graph

Search for Another Location

Airport:

Trip Planner

Search our weather history database for the weather conditions in past years. The results will help you decide how hot, cold, wet, or windy it might be!

Date:

Astronomy

Mar. 29, 2014 Rise Set
Actual Time 6:39 AM EDT 7:13 PM EDT
Civil Twilight 6:12 AM EDT 7:40 PM EDT
Nautical Twilight 5:39 AM EDT 8:13 PM EDT
Astronomical Twilight 5:06 AM EDT 8:46 PM EDT
Moon 5:47 AM EDT (3/29) 6:14 PM EDT (3/29)
Length of Visible Light 13h 28m
Length of Day
12h 33m
Waning Crescent, 2% of the Moon is Illuminated
Mar 29
Waning Crescent
Mar 30
New
Apr 7
First Quarter
Apr 15
Full
Apr 22
Last Quarter

Hourly Weather History & Observations

Time (EDT) Temp. Windchill Dew Point Humidity Pressure Visibility Wind Dir Wind Speed Gust Speed Precip Events Conditions
12:56 AM 45.0 °F 41.8 °F 41.0 °F 86% 30.11 in 9.0 mi SW 5.8 mph - N/A   Clear
1:56 AM 44.1 °F 42.5 °F 41.0 °F 89% 30.12 in 8.0 mi SW 3.5 mph - N/A   Clear
2:56 AM 41.0 °F 39.0 °F 39.0 °F 93% 30.12 in 6.0 mi WNW 3.5 mph - N/A   Clear
3:56 AM 39.9 °F - 37.9 °F 93% 30.12 in 5.0 mi Calm Calm - N/A   Clear
4:56 AM 37.0 °F 32.4 °F 36.0 °F 96% 30.14 in 4.0 mi South 5.8 mph - N/A   Clear
5:56 AM 35.1 °F - 34.0 °F 96% 30.14 in 3.0 mi Calm Calm - N/A   Clear
6:56 AM 37.0 °F - 36.0 °F 96% 30.17 in 2.5 mi Calm Calm - N/A   Clear
7:05 AM 37.9 °F - 36.0 °F 93% 30.18 in 3.0 mi Calm Calm - N/A   Clear
7:56 AM 43.0 °F 41.3 °F 41.0 °F 93% 30.20 in 4.0 mi Variable 3.5 mph - N/A   Mostly Cloudy
8:56 AM 46.0 °F 44.8 °F 42.1 °F 86% 30.21 in 10.0 mi Variable 3.5 mph - N/A   Overcast
9:56 AM 48.0 °F - 39.9 °F 74% 30.21 in 10.0 mi Variable 6.9 mph - N/A   Overcast
10:56 AM 46.9 °F - 39.9 °F 77% 30.21 in 8.0 mi NE 4.6 mph - 0.00 in Rain Light Rain
11:56 AM 48.0 °F - 43.0 °F 83% 30.19 in 10.0 mi Variable 3.5 mph - 0.02 in Rain Light Rain
12:56 PM 48.0 °F - 44.1 °F 86% 30.17 in 4.0 mi East 8.1 mph - 0.04 in Rain Light Rain
1:21 PM 46.9 °F - 44.1 °F 90% 30.14 in 2.0 mi Variable 6.9 mph - 0.08 in Rain Rain
1:37 PM 46.9 °F - 44.1 °F 90% 30.14 in 4.0 mi Variable 5.8 mph - 0.12 in Rain Rain
1:44 PM 46.9 °F - 44.1 °F 90% 30.15 in 3.0 mi Variable 6.9 mph - 0.14 in Rain Rain
1:56 PM 46.9 °F - 44.1 °F 90% 30.14 in 3.0 mi East 10.4 mph 19.6 mph 0.17 in Rain Rain
2:13 PM 46.9 °F - 44.1 °F 90% 30.13 in 3.0 mi Variable 6.9 mph - 0.04 in Rain Rain
2:23 PM 46.9 °F - 44.1 °F 90% 30.13 in 3.0 mi ESE 9.2 mph - 0.07 in Rain Rain
2:32 PM 46.0 °F 41.9 °F 44.1 °F 93% 30.11 in 2.5 mi East 8.1 mph - 0.10 in Rain Rain
2:42 PM 46.0 °F 41.4 °F 44.1 °F 93% 30.09 in 3.0 mi East 9.2 mph 19.6 mph 0.12 in Rain Rain
2:56 PM 46.9 °F - 44.1 °F 90% 30.08 in 5.0 mi East 10.4 mph 17.3 mph 0.14 in Rain Light Rain
3:56 PM 46.0 °F 41.4 °F 44.1 °F 93% 30.05 in 3.0 mi East 9.2 mph - 0.10 in Rain Rain
4:30 PM 46.0 °F 42.5 °F 44.1 °F 93% 30.03 in 2.5 mi Variable 6.9 mph - 0.08 in Rain Rain
4:42 PM 46.9 °F - 45.0 °F 93% 30.02 in 3.0 mi Variable 6.9 mph - 0.11 in Rain Rain
4:56 PM 46.9 °F - 45.0 °F 93% 30.02 in 4.0 mi Variable 5.8 mph - 0.13 in Rain Rain
5:47 PM 46.9 °F - 45.0 °F 93% 29.99 in 2.5 mi East 9.2 mph 19.6 mph 0.15 in Rain Rain
5:56 PM 46.9 °F - 45.0 °F 93% 29.99 in 4.0 mi Variable 6.9 mph - 0.16 in Rain Rain
6:27 PM 46.9 °F - 45.0 °F 93% 29.99 in 2.0 mi ENE 8.1 mph - 0.11 in Rain Heavy Rain
6:56 PM 46.9 °F - 45.0 °F 93% 29.98 in 1.5 mi ENE 9.2 mph - 0.27 in Rain Heavy Rain
7:04 PM 46.9 °F - 45.0 °F 93% 29.97 in 3.0 mi East 12.7 mph 20.7 mph 0.02 in Rain Rain
7:56 PM 46.9 °F - 45.0 °F 93% 29.94 in 6.0 mi ENE 9.2 mph - 0.15 in Rain Rain
8:44 PM 45.0 °F 42.6 °F 43.0 °F 93% 29.92 in 5.0 mi Variable 4.6 mph - 0.16 in Rain Rain
8:56 PM 44.1 °F 41.5 °F 43.0 °F 96% 29.92 in 4.0 mi Variable 4.6 mph - 0.19 in Rain Rain
9:37 PM 44.1 °F 41.5 °F 43.0 °F 96% 29.88 in 3.0 mi Variable 4.6 mph - 0.19 in Rain Rain
9:56 PM 44.1 °F 40.1 °F 42.1 °F 93% 29.86 in 3.0 mi Variable 6.9 mph - 0.29 in Rain Heavy Rain
10:12 PM 44.1 °F 41.5 °F 43.0 °F 96% 29.85 in 2.0 mi Variable 4.6 mph - 0.13 in Rain Heavy Rain
10:21 PM 44.1 °F 42.5 °F 43.0 °F 96% 29.85 in 1.2 mi Variable 3.5 mph - 0.32 in Rain Heavy Rain
10:30 PM 46.0 °F 43.1 °F 45.0 °F 96% 29.84 in 2.0 mi Variable 5.8 mph - 0.41 in Rain Heavy Rain
10:45 PM 46.9 °F - 46.0 °F 97% 29.84 in 2.5 mi Variable 4.6 mph - 0.51 in Rain Heavy Rain
10:56 PM 46.0 °F 44.8 °F 45.0 °F 96% 29.83 in 3.0 mi Variable 3.5 mph - 0.57 in Rain Heavy Rain
11:22 PM 46.0 °F 44.8 °F 45.0 °F 96% 29.80 in 4.0 mi Variable 3.5 mph - 0.09 in Rain Rain
11:56 PM 48.9 °F - 48.0 °F 97% 29.75 in 6.0 mi Variable 6.9 mph - 0.15 in Rain Light Rain